Aérodrome :
LOGIN :

S'inscrire | Disclaimer

   EN    FR    IT 

 










Légende :    VFR   VFR Marginal   IFR   IFR Intensif   IFR Très Intensif
Visi : 
Plafond : 
>= 8 km
>= 3000ft
5 à 8 km
1000 à 3000 ft
1500m à 5 km
500 à 1000 ft
800 à 1500m
200 à 500 ft
< 800m
< 200 ft
Symboles :   Orages  Brouillard  Fortes neiges  Fortes précipitations  Vent > 20 kt
SIGMETs :   Divers  Orages  Givrage  Turbulence  Onde Orograph.  Cendres Volcan.







- Altitude de l'aérodrome : 12 ft
- Code IATA : NCE
- Voir les cartes d'approche


LFMN - Nice

DERNIER METAR :
  • 181700Z 06007KT CAVOK 22/16 Q1012 NOSIG

METARs EXPIRÉS :
  • 181630Z 07008KT CAVOK 22/16 Q1012 NOSIG
  • 181600Z 10009KT CAVOK 22/16 Q1012 NOSIG
  • 181530Z 08010KT CAVOK 23/16 Q1012 NOSIG
  • 181500Z 09008KT CAVOK 23/16 Q1012 NOSIG
  • 181430Z 08004KT 9999 FEW046 SCT230 23/17 Q1012 NOSIG

TAF TAF LFMN
Valide du 18 à 15h jusqu'au 19 à 21h UTC


181400Z 1815/1921 10012KT 9999 FEW040 BKN150
BECMG 1818/1821 34010KT
BECMG 1908/1910 19008KT
BECMG 1917/1919 33010KT
ATIS : +33 4 93 17 21 16
Pas de NOTAMs connus pour ce terrain.



MET'MAP, la Météo Aéronautique d'un coup d'oeil ! - Copyright ORBIFLY Décembre 2007 - Disclaimer

ORBIFLY MET'MAP TEAM :

Programmation & Développement : Alexandra Zaïnal
Conception & Développement : Baudouin d'Aumeries
Co-Programmation & Développement : Marc-Olivier Méhu
Soutien technique & logistique : Manuel Goepfert

Contact : metmap@orbifly.com




SOURCES & CREDITS :

   NOAA